User: anonymous   Login
Location: Newark
(67.3000°N, 13.7167°E)
Time: 01:26:10
(UTC+00:00)
Language:

Hubble Space Telescope - Orbit

View from above orbital plane
View from above orbital plane
View from above satellite
View from above satellite

Ground track
Ground track

The orbit data is extracted from the following two-line orbital elements,

1 20580U 90037B   20058.79508854  .00000383  00000-0  12298-4 0  9995
2 20580  28.4705 331.5487 0002575 342.9250  53.0533 15.09344363439315
Epoch (UTC): 27 February 2020 19:04:55
Eccentricity: 0.0002575
inclination: 28.4705°
perigee height: 536 km
apogee height: 540 km
right ascension of ascending node: 331.5487°
argument of perigee: 342.9250°
revolutions per day: 15.09344363
mean anomaly at epoch: 53.0533°
orbit number at epoch: 43931

The dashed part of the orbit path shows where the satellite is in the earth's shadow,  

DLR